Weather History for Cut Bank, MT

Change the Weather History Date:

Thursday, January 24, 2013

  Actual Average Record
Temperature  
Mean Temperature 32 °F 23 °F  
Max Temperature 46 °F 33 °F 60 °F (2005)
Min Temperature 17 °F 12 °F -41 °F (1943)
Degree Days  
Heating Degree Days 33 42  
Month to date heating degree days 957 1033  
Since 1 July heating degree days 4482 4623  
Cooling Degree Days 0 0  
Month to date cooling degree days 0 0  
Year to date cooling degree days 0 0  
Moisture  
Dew Point 20 °F    
Average Humidity 58    
Maximum Humidity 78    
Minimum Humidity 37    
Precipitation  
Precipitation 0.00 in 0.01 in 0.35 in (1970)
Month to date precipitation 0.41 0.16  
Year to date precipitation 0.41 0.16  
Snow  
Snow 0.00 in - - ()
Snow Depth 0.00 in    
Sea Level Pressure  
Sea Level Pressure 29.96 in    
Wind  
Wind Speed 21 mph (WSW)    
Max Wind Speed 37 mph    
Max Gust Speed 45 mph    
Visibility 10 miles    
Events      
T = Trace of Precipitation, MM = Missing Value Source: NWS Daily Summary

Daily Weather History Graph

Daily Weather History Graph

Search for Another Location

Airport:

Trip Planner

Search our weather history database for the weather conditions in past years. The results will help you decide how hot, cold, wet, or windy it might be!

Date:

Astronomy

Jan. 24, 2013 Rise Set
Actual Time 8:08 AM MST 5:15 PM MST
Civil Twilight 7:33 AM MST 5:50 PM MST
Nautical Twilight 6:55 AM MST 6:28 PM MST
Astronomical Twilight 6:18 AM MST 7:05 PM MST
Moon 3:18 PM MST (1/24) 6:11 AM MST (1/24)
Length of Visible Light 10h 16m
Length of Day
9h 07m
Waxing Gibbous, 95% of the Moon is Illuminated
Jan 24
Waxing Gibbous
Jan 26
Full
Feb 3
Last Quarter
Feb 10
New
Feb 17
First Quarter

Hourly Weather History & Observations

Time (MST) Temp. Windchill Dew Point Humidity Pressure Visibility Wind Dir Wind Speed Gust Speed Precip Events Conditions
12:56 AM 19.0 °F 6.8 °F 10.9 °F 71% 29.88 in 10.0 mi SSE 11.5 mph - N/A   Clear
1:56 AM 19.0 °F 11.1 °F 12.0 °F 74% 29.88 in 10.0 mi SW 5.8 mph - N/A   Clear
2:56 AM 30.9 °F 22.2 °F 24.1 °F 76% 29.84 in 10.0 mi SE 10.4 mph - N/A   Clear
3:56 AM 42.1 °F 33.3 °F 28.0 °F 58% 29.82 in 10.0 mi WSW 19.6 mph 27.6 mph N/A   Clear
4:56 AM 39.9 °F 28.8 °F 28.0 °F 63% 29.81 in 10.0 mi West 27.6 mph 40.3 mph N/A   Clear
5:56 AM 37.9 °F 26.3 °F 27.0 °F 65% 29.82 in 10.0 mi West 26.5 mph 36.8 mph N/A   Clear
6:56 AM 37.0 °F 27.0 °F 25.0 °F 62% 29.86 in 10.0 mi West 18.4 mph 29.9 mph N/A   Clear
7:56 AM 37.9 °F 27.3 °F 23.0 °F 55% 29.91 in 10.0 mi West 21.9 mph 29.9 mph N/A   Clear
8:56 AM 37.0 °F 26.7 °F 23.0 °F 57% 29.96 in 10.0 mi WNW 19.6 mph - N/A   Clear
9:56 AM 41.0 °F 32.2 °F 21.9 °F 47% 29.99 in 10.0 mi West 18.4 mph - N/A   Clear
10:56 AM 42.1 °F 31.5 °F 19.0 °F 40% 30.01 in 10.0 mi West 28.8 mph 42.6 mph N/A   Clear
11:56 AM 44.1 °F 33.8 °F 19.0 °F 37% 30.02 in 10.0 mi West 31.1 mph 43.7 mph N/A   Clear
12:56 PM 44.1 °F 33.8 °F 19.0 °F 37% 30.02 in 10.0 mi West 31.1 mph 40.3 mph N/A   Clear
1:56 PM 45.0 °F 36.2 °F 19.0 °F 36% 30.04 in 10.0 mi West 24.2 mph - N/A   Clear
2:56 PM 43.0 °F 33.8 °F 19.0 °F 38% 30.01 in 10.0 mi West 23.0 mph 29.9 mph N/A   Clear
3:56 PM 42.1 °F 31.9 °F 21.0 °F 43% 29.99 in 10.0 mi West 26.5 mph 32.2 mph N/A   Clear
4:56 PM 37.9 °F 25.9 °F 21.0 °F 51% 30.03 in 10.0 mi WSW 28.8 mph 34.5 mph N/A   Clear
5:56 PM 35.1 °F 25.2 °F 19.0 °F 52% 30.06 in 10.0 mi WSW 16.1 mph - N/A   Clear
6:56 PM 36.0 °F 25.0 °F 19.0 °F 50% 30.05 in 10.0 mi West 20.7 mph 27.6 mph N/A   Clear
7:56 PM 35.1 °F 24.8 °F 17.1 °F 48% 30.06 in 10.0 mi WSW 17.3 mph - N/A   Clear
8:56 PM 36.0 °F 25.3 °F 16.0 °F 44% 30.04 in 10.0 mi WSW 19.6 mph 26.5 mph N/A   Clear
9:56 PM 36.0 °F 24.7 °F 14.0 °F 41% 30.01 in 10.0 mi WSW 21.9 mph - N/A   Clear
10:56 PM 36.0 °F 26.0 °F 14.0 °F 41% 30.02 in 10.0 mi WSW 17.3 mph - N/A   Clear
11:56 PM 37.0 °F 25.1 °F 12.0 °F 36% 30.01 in 10.0 mi WSW 26.5 mph 31.1 mph N/A   Clear